| time (UTC) | temp F | wind direction | speed MPH | gust MPH | rain 1hr in | rain 24hr in | rain mn in | humidity % | barometer mb |
| 20260508052117 | 60 | 357 | 0.0 | 1.0 | 0.00 | 0.00 | 0.00 | 89 | 1016.3 |
| 20260508051616 | 60 | 11 | 0.0 | 1.0 | 0.00 | 0.00 | 0.00 | 89 | 1016.3 |
| 20260508051116 | 60 | 11 | 0.0 | 1.0 | 0.00 | 0.00 | 0.00 | 89 | 1016.4 |
| 20260508050616 | 60 | 11 | 0.0 | 2.0 | 0.00 | 0.00 | 0.00 | 89 | 1016.4 |
| 20260508050115 | 60 | 18 | 1.0 | 3.0 | 0.00 | 0.00 | 0.00 | 88 | 1016.3 |
| 20260508045615 | 60 | 20 | 1.0 | 3.0 | 0.00 | 0.00 | 0.00 | 88 | 1016.3 |
| 20260508045114 | 60 | 14 | 0.0 | 3.0 | 0.00 | 0.00 | 0.00 | 88 | 1016.2 |
| 20260508044614 | 60 | 14 | 1.0 | 5.0 | 0.00 | 0.00 | 0.00 | 88 | 1016.2 |
| 20260508044113 | 60 | 14 | 1.0 | 5.0 | 0.00 | 0.00 | 0.00 | 87 | 1016.1 |
| 20260508043613 | 60 | 3 | 0.0 | 3.0 | 0.00 | 0.00 | 0.00 | 87 | 1015.9 |
| 20260508043119 | 61 | 328 | 0.0 | 3.0 | 0.00 | 0.00 | 0.00 | 87 | 1015.9 |
| 20260508043115 | 60 | 330 | 0.0 | 2.0 | 0.00 | 0.00 | 0.00 | 87 | 1015.9 |
| 20260508042737 | 61 | 327 | 1.0 | 4.0 | 0.00 | 0.00 | 0.00 | 87 | 1015.7 |
| 20260508041613 | 61 | 318 | 1.0 | 4.0 | 0.00 | 0.00 | 0.00 | 86 | 1015.8 |
| 20260508041115 | 61 | 16 | 1.0 | 4.0 | 0.00 | 0.00 | 0.00 | 86 | 1015.6 |
| 20260508040613 | 61 | 357 | 1.0 | 5.0 | 0.00 | 0.00 | 0.00 | 86 | 1015.7 |
| 20260508040113 | 61 | 24 | 1.0 | 5.0 | 0.00 | 0.00 | 0.00 | 85 | 1015.5 |
| 20260508035611 | 61 | 23 | 0.0 | 4.0 | 0.00 | 0.00 | 0.00 | 85 | 1015.4 |
| 20260508035113 | 62 | 348 | 0.0 | 0.0 | 0.00 | 0.00 | 0.00 | 85 | 1015.4 |
| 20260508034613 | 62 | 348 | 0.0 | 0.0 | 0.00 | 0.00 | 0.00 | 84 | 1015.2 |
| 20260508034111 | 62 | 348 | 0.0 | 0.0 | 0.00 | 0.00 | 0.00 | 84 | 1015.2 |
| 20260508033611 | 62 | 358 | 0.0 | 0.0 | 0.00 | 0.00 | 0.00 | 84 | 1015.1 |
| 20260508033118 | 62 | 14 | 0.0 | 0.0 | 0.00 | 0.00 | 0.00 | 83 | 1014.8 |
| 20260508033113 | 62 | 14 | 0.0 | 0.0 | 0.00 | 0.00 | 0.00 | 84 | 1014.9 |
| 20260508032111 | 63 | 13 | 0.0 | 2.0 | 0.00 | 0.00 | 0.00 | 83 | 1014.9 |
| 20260508031611 | 63 | 20 | 0.0 | 2.0 | 0.00 | 0.00 | 0.00 | 83 | 1014.8 |
| 20260508031116 | 63 | 18 | 2.0 | 5.0 | 0.00 | 0.00 | 0.00 | 82 | 1014.6 |
| 20260508031110 | 63 | 20 | 1.0 | 4.0 | 0.00 | 0.00 | 0.00 | 82 | 1014.7 |
| 20260508030115 | 64 | 359 | 2.0 | 5.0 | 0.00 | 0.00 | 0.00 | 81 | 1014.4 |
| 20260508030109 | 64 | 340 | 2.0 | 5.0 | 0.00 | 0.00 | 0.00 | 81 | 1014.6 |
| 20260508025109 | 64 | 22 | 2.0 | 6.0 | 0.00 | 0.00 | 0.00 | 80 | 1014.4 |
| 20260508024609 | 64 | 351 | 2.0 | 7.0 | 0.00 | 0.00 | 0.00 | 80 | 1014.5 |
| 20260508024109 | 65 | 25 | 1.0 | 7.0 | 0.00 | 0.00 | 0.00 | 79 | 1014.2 |
| 20260508023609 | 65 | 4 | 1.0 | 5.0 | 0.00 | 0.00 | 0.00 | 79 | 1014.2 |
| 20260508023114 | 66 | 324 | 2.0 | 5.0 | 0.00 | 0.00 | 0.00 | 78 | 1014.1 |
| 20260508023109 | 65 | 319 | 1.0 | 5.0 | 0.00 | 0.00 | 0.00 | 78 | 1014.2 |
| 20260508022109 | 66 | 327 | 2.0 | 7.0 | 0.00 | 0.00 | 0.00 | 77 | 1014.1 |
| 20260508021614 | 67 | 346 | 1.0 | 5.0 | 0.00 | 0.00 | 0.00 | 76 | 1014.0 |
| 20260508021608 | 67 | 29 | 1.0 | 7.0 | 0.00 | 0.00 | 0.00 | 77 | 1014.1 |
| 20260508020607 | 67 | 29 | 1.0 | 5.0 | 0.00 | 0.00 | 0.00 | 75 | 1014.1 |
| 20260508020114 | 68 | 347 | 1.0 | 7.0 | 0.00 | 0.00 | 0.00 | 74 | 1014.0 |
| 20260508020109 | 68 | 29 | 1.0 | 7.0 | 0.00 | 0.00 | 0.00 | 74 | 1014.0 |
| 20260508015108 | 69 | 325 | 1.0 | 7.0 | 0.00 | 0.00 | 0.00 | 73 | 1014.1 |
| 20260508014608 | 69 | 12 | 1.0 | 5.0 | 0.00 | 0.00 | 0.00 | 72 | 1014.0 |
| 20260508014107 | 69 | 311 | 1.0 | 5.0 | 0.00 | 0.00 | 0.00 | 72 | 1013.9 |
| 20260508013608 | 70 | 18 | 1.0 | 5.0 | 0.00 | 0.00 | 0.00 | 71 | 1013.9 |
| 20260508013111 | 71 | 327 | 1.0 | 6.0 | 0.00 | 0.00 | 0.00 | 70 | 1013.8 |
| 20260508013105 | 71 | 330 | 1.0 | 4.0 | 0.00 | 0.00 | 0.00 | 71 | 1013.8 |
| 20260508012105 | 71 | 325 | 1.0 | 6.0 | 0.00 | 0.00 | 0.00 | 70 | 1013.9 |
| 20260508011606 | 72 | 334 | 1.0 | 3.0 | 0.00 | 0.00 | 0.00 | 69 | 1013.9 |
| 20260508011111 | 72 | 25 | 1.0 | 5.0 | 0.00 | 0.00 | 0.00 | 69 | 1013.9 |
| 20260508011105 | 72 | 340 | 1.0 | 4.0 | 0.00 | 0.00 | 0.00 | 69 | 1013.9 |
| 20260508010605 | 72 | 4 | 1.0 | 5.0 | 0.00 | 0.00 | 0.00 | 69 | 1013.9 |
| 20260508005605 | 73 | 322 | 1.0 | 5.0 | 0.00 | 0.00 | 0.00 | 68 | 1014.0 |
| 20260508005110 | 73 | 334 | 1.0 | 7.0 | 0.00 | 0.00 | 0.00 | 68 | 1013.8 |
| 20260508005105 | 73 | 331 | 1.0 | 7.0 | 0.00 | 0.00 | 0.00 | 68 | 1013.8 |
| 20260508004105 | 73 | 314 | 1.0 | 4.0 | 0.00 | 0.00 | 0.00 | 68 | 1013.7 |
| 20260508003603 | 73 | 4 | 1.0 | 6.0 | 0.00 | 0.00 | 0.00 | 69 | 1013.8 |
| 20260508003103 | 73 | 343 | 1.0 | 6.0 | 0.00 | 0.00 | 0.00 | 68 | 1013.8 |
| 20260508002604 | 73 | 336 | 2.0 | 7.0 | 0.00 | 0.00 | 0.00 | 68 | 1013.8 |
| 20260508002103 | 73 | 342 | 2.0 | 8.0 | 0.00 | 0.00 | 0.00 | 68 | 1013.8 |
| 20260508001602 | 74 | 23 | 2.0 | 8.0 | 0.00 | 0.00 | 0.00 | 67 | 1013.8 |
| 20260508001109 | 74 | 318 | 2.0 | 7.0 | 0.00 | 0.00 | 0.00 | 67 | 1013.8 |
| 20260508001104 | 74 | 334 | 1.0 | 7.0 | 0.00 | 0.00 | 0.00 | 67 | 1013.8 |
| 20260507235604 | 74 | 338 | 2.0 | 8.0 | 0.00 | 0.00 | 0.00 | 66 | 1013.8 |
| 20260507235108 | 74 | 325 | 2.0 | 9.0 | 0.00 | 0.00 | 0.00 | 67 | 1013.7 |
| 20260507235103 | 74 | 340 | 2.0 | 9.0 | 0.00 | 0.00 | 0.00 | 67 | 1013.8 |
| 20260507234104 | 74 | 338 | 2.0 | 8.0 | 0.00 | 0.00 | 0.00 | 66 | 1013.8 |
| 20260507233602 | 74 | 351 | 3.0 | 10.0 | 0.00 | 0.00 | 0.00 | 66 | 1013.8 |
| 20260507233102 | 74 | 0 | 3.0 | 10.0 | 0.00 | 0.00 | 0.00 | 66 | 1013.8 |
| 20260507232602 | 74 | 324 | 2.0 | 8.0 | 0.00 | 0.00 | 0.00 | 66 | 1013.8 |
| 20260507232108 | 75 | 18 | 3.0 | 11.0 | 0.00 | 0.00 | 0.00 | 66 | 1013.8 |
| 20260507232103 | 74 | 349 | 2.0 | 11.0 | 0.00 | 0.00 | 0.00 | 66 | 1013.7 |
| 20260507231110 | 75 | 22 | 3.0 | 9.0 | 0.00 | 0.00 | 0.00 | 65 | 1013.8 |
| 20260507231104 | 75 | 29 | 2.0 | 6.0 | 0.00 | 0.00 | 0.00 | 65 | 1013.7 |
| 20260507230602 | 75 | 324 | 2.0 | 8.0 | 0.00 | 0.00 | 0.00 | 66 | 1013.7 |
| 20260507225602 | 75 | 318 | 2.0 | 9.0 | 0.00 | 0.00 | 0.00 | 65 | 1013.8 |
| 20260507225102 | 75 | 320 | 3.0 | 9.0 | 0.00 | 0.00 | 0.00 | 65 | 1013.8 |
| 20260507224603 | 76 | 326 | 3.0 | 8.0 | 0.00 | 0.00 | 0.00 | 64 | 1013.9 |
| 20260507224103 | 76 | 62 | 2.0 | 11.0 | 0.00 | 0.00 | 0.00 | 65 | 1013.7 |
| 20260507223602 | 75 | 320 | 2.0 | 11.0 | 0.00 | 0.00 | 0.00 | 65 | 1013.9 |
| 20260507223108 | 76 | 341 | 2.0 | 9.0 | 0.00 | 0.00 | 0.00 | 65 | 1013.9 |
| 20260507223103 | 76 | 327 | 2.0 | 8.0 | 0.00 | 0.00 | 0.00 | 64 | 1013.9 |
| 20260507222105 | 76 | 47 | 3.0 | 9.0 | 0.00 | 0.00 | 0.00 | 65 | 1014.0 |
| 20260507221603 | 76 | 311 | 3.0 | 11.0 | 0.00 | 0.00 | 0.00 | 64 | 1014.0 |
| 20260507221104 | 76 | 305 | 3.0 | 11.0 | 0.00 | 0.00 | 0.00 | 65 | 1014.1 |
| 20260507220603 | 76 | 338 | 4.0 | 10.0 | 0.00 | 0.00 | 0.00 | 64 | 1014.0 |
| 20260507220100 | 76 | 310 | 3.0 | 10.0 | 0.00 | 0.00 | 0.00 | 64 | 1014.1 |
| 20260507215608 | 76 | 322 | 3.0 | 10.0 | 0.00 | 0.00 | 0.00 | 63 | 1014.2 |
| 20260507215602 | 77 | 301 | 3.0 | 11.0 | 0.00 | 0.00 | 0.00 | 63 | 1014.1 |
| 20260507215102 | 76 | 54 | 3.0 | 11.0 | 0.00 | 0.00 | 0.00 | 64 | 1014.4 |
| 20260507214101 | 76 | 330 | 3.0 | 9.0 | 0.00 | 0.00 | 0.00 | 63 | 1014.4 |
| 20260507213601 | 77 | 348 | 3.0 | 12.0 | 0.00 | 0.00 | 0.00 | 64 | 1014.4 |
| 20260507213108 | 77 | 107 | 3.0 | 11.0 | 0.00 | 0.00 | 0.00 | 62 | 1014.5 |
| 20260507213103 | 77 | 309 | 3.0 | 12.0 | 0.00 | 0.00 | 0.00 | 64 | 1014.5 |
| 20260507212105 | 78 | 280 | 2.0 | 11.0 | 0.00 | 0.00 | 0.00 | 62 | 1014.4 |
| 20260507212100 | 77 | 15 | 3.0 | 11.0 | 0.00 | 0.00 | 0.00 | 62 | 1014.4 |
| 20260507211058 | 77 | 322 | 2.0 | 11.0 | 0.00 | 0.00 | 0.00 | 63 | 1014.5 |
| 20260507210559 | 78 | 12 | 3.0 | 11.0 | 0.00 | 0.00 | 0.00 | 63 | 1014.5 |
| 20260507210105 | 78 | 330 | 3.0 | 10.0 | 0.00 | 0.00 | 0.00 | 62 | 1014.8 |
| 20260507210058 | 77 | 19 | 3.0 | 11.0 | 0.00 | 0.00 | 0.00 | 62 | 1014.7 |
| 20260507205722 | 78 | 276 | 3.0 | 9.0 | 0.00 | 0.00 | 0.00 | 62 | 1014.9 |
| 20260507205559 | 77 | 15 | 4.0 | 10.0 | 0.00 | 0.00 | 0.00 | 62 | 1014.8 |
| 20260507204100 | 78 | 0 | 3.0 | 9.0 | 0.00 | 0.00 | 0.00 | 62 | 1014.7 |
| 20260507203603 | 77 | 299 | 3.0 | 10.0 | 0.00 | 0.00 | 0.00 | 63 | 1014.8 |
| 20260507203558 | 77 | 16 | 3.0 | 9.0 | 0.00 | 0.00 | 0.00 | 63 | 1014.7 |
| 20260507203223 | 78 | 34 | 4.0 | 11.0 | 0.00 | 0.00 | 0.00 | 62 | 1014.8 |
| 20260507203219 | 78 | 328 | 3.0 | 11.0 | 0.00 | 0.00 | 0.00 | 62 | 1014.8 |
| 20260507201557 | 78 | 293 | 4.0 | 10.0 | 0.00 | 0.00 | 0.00 | 62 | 1014.7 |
| 20260507201056 | 78 | 347 | 3.0 | 10.0 | 0.00 | 0.00 | 0.00 | 62 | 1014.7 |
| 20260507200602 | 77 | 359 | 2.0 | 10.0 | 0.00 | 0.00 | 0.00 | 62 | 1014.7 |
| 20260507200557 | 78 | 330 | 2.0 | 8.0 | 0.00 | 0.00 | 0.00 | 61 | 1014.8 |
| 20260507200217 | 78 | 353 | 2.0 | 10.0 | 0.00 | 0.00 | 0.00 | 62 | 1014.8 |
| 20260507195056 | 78 | 359 | 2.0 | 9.0 | 0.00 | 0.00 | 0.00 | 62 | 1014.8 |
| 20260507194556 | 77 | 326 | 2.0 | 9.0 | 0.00 | 0.00 | 0.00 | 63 | 1014.7 |
| 20260507194056 | 77 | 330 | 2.0 | 8.0 | 0.00 | 0.00 | 0.00 | 63 | 1014.7 |
| 20260507193556 | 78 | 351 | 3.0 | 10.0 | 0.00 | 0.00 | 0.00 | 61 | 1014.8 |
| 20260507193101 | 78 | 356 | 2.0 | 10.0 | 0.00 | 0.00 | 0.00 | 62 | 1014.8 |
| 20260507193056 | 78 | 313 | 3.0 | 10.0 | 0.00 | 0.00 | 0.00 | 62 | 1014.8 |
| 20260507192054 | 78 | 298 | 2.0 | 9.0 | 0.00 | 0.00 | 0.00 | 63 | 1014.9 |
| 20260507191554 | 78 | 353 | 3.0 | 8.0 | 0.00 | 0.00 | 0.00 | 63 | 1014.9 |
| 20260507191056 | 78 | 336 | 4.0 | 10.0 | 0.00 | 0.00 | 0.00 | 63 | 1015.0 |
| 20260507190555 | 77 | 280 | 5.0 | 10.0 | 0.00 | 0.00 | 0.00 | 63 | 1015.0 |
| 20260507190056 | 78 | 329 | 4.0 | 10.0 | 0.00 | 0.00 | 0.00 | 63 | 1014.9 |
| 20260507185054 | 77 | 291 | 4.0 | 9.0 | 0.00 | 0.00 | 0.00 | 62 | 1015.1 |
| 20260507184555 | 77 | 305 | 3.0 | 10.0 | 0.00 | 0.00 | 0.00 | 63 | 1015.2 |
| 20260507184054 | 77 | 305 | 2.0 | 10.0 | 0.00 | 0.00 | 0.00 | 63 | 1015.3 |
| 20260507183554 | 75 | 231 | 2.0 | 6.0 | 0.00 | 0.00 | 0.00 | 63 | 1015.3 |
| 20260507183054 | 77 | 313 | 2.0 | 7.0 | 0.00 | 0.00 | 0.00 | 62 | 1015.4 |
| 20260507182554 | 76 | 232 | 2.0 | 7.0 | 0.00 | 0.00 | 0.00 | 63 | 1015.5 |
| 20260507182052 | 76 | 239 | 2.0 | 9.0 | 0.00 | 0.00 | 0.00 | 62 | 1015.5 |
| 20260507181554 | 75 | 309 | 2.0 | 9.0 | 0.00 | 0.00 | 0.00 | 64 | 1015.5 |
| 20260507181051 | 75 | 323 | 2.0 | 7.0 | 0.00 | 0.00 | 0.00 | 62 | 1015.6 |
| 20260507180552 | 76 | 314 | 1.0 | 7.0 | 0.00 | 0.00 | 0.00 | 64 | 1015.5 |
| 20260507180054 | 75 | 276 | 0.0 | 5.0 | 0.00 | 0.00 | 0.00 | 66 | 1015.6 |
| 20260507175552 | 73 | 345 | 1.0 | 5.0 | 0.00 | 0.00 | 0.00 | 67 | 1015.6 |
| 20260507175053 | 73 | 355 | 2.0 | 7.0 | 0.00 | 0.00 | 0.00 | 67 | 1015.7 |
| 20260507174557 | 73 | 240 | 1.0 | 4.0 | 0.00 | 0.00 | 0.00 | 66 | 1015.8 |
| 20260507174553 | 73 | 239 | 2.0 | 7.0 | 0.00 | 0.00 | 0.00 | 66 | 1015.6 |
| 20260507173553 | 72 | 239 | 0.0 | 3.0 | 0.00 | 0.00 | 0.00 | 67 | 1015.7 |
| 20260507173056 | 71 | 149 | 0.0 | 4.0 | 0.00 | 0.00 | 0.00 | 68 | 1015.8 |
| 20260507173051 | 71 | 216 | 0.0 | 2.0 | 0.00 | 0.00 | 0.00 | 68 | 1015.8 |
| 20260507172708 | 71 | 273 | 1.0 | 4.0 | 0.00 | 0.00 | 0.00 | 70 | 1015.9 |
| 20260507172051 | 71 | 70 | 1.0 | 4.0 | 0.00 | 0.00 | 0.00 | 69 | 1015.9 |
| 20260507171050 | 70 | 258 | 1.0 | 4.0 | 0.00 | 0.00 | 0.00 | 71 | 1015.9 |
| 20260507170551 | 70 | 232 | 0.0 | 3.0 | 0.00 | 0.00 | 0.00 | 72 | 1016.0 |
| 20260507170056 | 68 | 258 | 1.0 | 4.0 | 0.00 | 0.00 | 0.00 | 75 | 1015.9 |
| 20260507170051 | 69 | 288 | 1.0 | 4.0 | 0.00 | 0.00 | 0.00 | 74 | 1016.0 |
| 20260507165550 | 68 | 261 | 1.0 | 4.0 | 0.00 | 0.00 | 0.00 | 74 | 1016.0 |
| 20260507164550 | 68 | 241 | 1.0 | 4.0 | 0.00 | 0.00 | 0.00 | 75 | 1016.0 |
| 20260507164049 | 67 | 238 | 1.0 | 3.0 | 0.00 | 0.00 | 0.00 | 77 | 1016.0 |
| 20260507163551 | 66 | 256 | 1.0 | 3.0 | 0.00 | 0.00 | 0.00 | 79 | 1016.1 |
| 20260507163050 | 66 | 257 | 1.0 | 3.0 | 0.00 | 0.00 | 0.00 | 81 | 1016.2 |
| 20260507162550 | 65 | 254 | 1.0 | 3.0 | 0.00 | 0.00 | 0.00 | 82 | 1016.3 |
| 20260507162050 | 64 | 253 | 1.0 | 4.0 | 0.00 | 0.00 | 0.00 | 83 | 1016.2 |
| 20260507161549 | 63 | 265 | 0.0 | 4.0 | 0.00 | 0.00 | 0.00 | 84 | 1016.3 |
| 20260507161052 | 63 | 212 | 0.0 | 0.0 | 0.00 | 0.00 | 0.00 | 85 | 1016.4 |
| 20260507160550 | 62 | 209 | 0.0 | 2.0 | 0.00 | 0.00 | 0.00 | 87 | 1016.4 |
| 20260507160051 | 61 | 209 | 0.0 | 2.0 | 0.00 | 0.00 | 0.00 | 89 | 1016.5 |
| 20260507155549 | 60 | 275 | 0.0 | 1.0 | 0.00 | 0.00 | 0.00 | 90 | 1016.4 |
| 20260507155050 | 59 | 325 | 0.0 | 0.0 | 0.00 | 0.00 | 0.00 | 91 | 1016.4 |
| 20260507154549 | 59 | 325 | 0.0 | 2.0 | 0.00 | 0.00 | 0.00 | 91 | 1016.4 |
| 20260507154049 | 58 | 325 | 0.0 | 2.0 | 0.00 | 0.00 | 0.00 | 91 | 1016.4 |
| 20260507153550 | 58 | 326 | 0.0 | 1.0 | 0.00 | 0.00 | 0.00 | 91 | 1016.4 |
| 20260507153051 | 58 | 325 | 0.0 | 1.0 | 0.00 | 0.00 | 0.00 | 91 | 1016.4 |
| 20260507152551 | 58 | 324 | 0.0 | 2.0 | 0.00 | 0.00 | 0.00 | 92 | 1016.4 |
| 20260507152049 | 58 | 324 | 0.0 | 2.0 | 0.00 | 0.00 | 0.00 | 92 | 1016.5 |
| 20260507151551 | 58 | 29 | 0.0 | 0.0 | 0.00 | 0.00 | 0.00 | 92 | 1016.4 |
| 20260507151046 | 58 | 51 | 0.0 | 0.0 | 0.00 | 0.00 | 0.00 | 92 | 1016.3 |
| 20260507150548 | 58 | 56 | 0.0 | 0.0 | 0.00 | 0.00 | 0.00 | 92 | 1016.3 |
| 20260507150046 | 57 | 56 | 0.0 | 0.0 | 0.00 | 0.00 | 0.00 | 92 | 1016.3 |
| 20260507145550 | 57 | 60 | 0.0 | 0.0 | 0.00 | 0.00 | 0.00 | 92 | 1016.2 |
| 20260507145546 | 57 | 60 | 0.0 | 0.0 | 0.00 | 0.00 | 0.00 | 92 | 1016.3 |
| 20260507144550 | 57 | 116 | 0.0 | 0.0 | 0.00 | 0.00 | 0.00 | 92 | 1016.4 |
| 20260507144545 | 57 | 59 | 0.0 | 0.0 | 0.00 | 0.00 | 0.00 | 92 | 1016.4 |
| 20260507144203 | 57 | 116 | 0.0 | 0.0 | 0.00 | 0.00 | 0.00 | 92 | 1016.3 |
| 20260507143045 | 57 | 116 | 0.0 | 0.0 | 0.00 | 0.00 | 0.00 | 92 | 1016.1 |
| 20260507142551 | 56 | 116 | 0.0 | 0.0 | 0.00 | 0.00 | 0.00 | 92 | 1016.1 |
| 20260507142546 | 56 | 116 | 0.0 | 0.0 | 0.00 | 0.00 | 0.00 | 92 | 1016.1 |
| 20260507142203 | 56 | 116 | 0.0 | 0.0 | 0.00 | 0.00 | 0.00 | 92 | 1016.1 |
| 20260507141043 | 56 | 116 | 0.0 | 0.0 | 0.00 | 0.00 | 0.00 | 92 | 1016.2 |
| 20260507140543 | 56 | 116 | 0.0 | 0.0 | 0.00 | 0.00 | 0.00 | 92 | 1016.2 |
| 20260507140043 | 56 | 116 | 0.0 | 0.0 | 0.00 | 0.00 | 0.00 | 92 | 1016.0 |
| 20260507135543 | 56 | 116 | 0.0 | 1.0 | 0.00 | 0.00 | 0.00 | 92 | 1016.1 |
| 20260507135044 | 55 | 118 | 0.0 | 1.0 | 0.00 | 0.00 | 0.00 | 92 | 1016.0 |
| 20260507134544 | 55 | 92 | 0.0 | 1.0 | 0.00 | 0.00 | 0.00 | 92 | 1016.0 |
| 20260507134049 | 55 | 91 | 0.0 | 1.0 | 0.00 | 0.00 | 0.00 | 92 | 1016.0 |
| 20260507134044 | 55 | 92 | 0.0 | 1.0 | 0.00 | 0.00 | 0.00 | 92 | 1016.1 |
| 20260507133043 | 55 | 47 | 0.0 | 1.0 | 0.00 | 0.00 | 0.00 | 92 | 1016.1 |
| 20260507132542 | 55 | 45 | 0.0 | 0.0 | 0.00 | 0.00 | 0.00 | 92 | 1016.2 |
| 20260507132043 | 55 | 45 | 0.0 | 0.0 | 0.00 | 0.00 | 0.00 | 92 | 1016.1 |
| 20260507131542 | 55 | 45 | 0.0 | 0.0 | 0.00 | 0.00 | 0.00 | 92 | 1016.0 |
| 20260507131048 | 54 | 45 | 0.0 | 0.0 | 0.00 | 0.00 | 0.00 | 92 | 1016.0 |
| 20260507131042 | 55 | 45 | 0.0 | 0.0 | 0.00 | 0.00 | 0.00 | 92 | 1016.1 |
| 20260507130042 | 55 | 45 | 0.0 | 0.0 | 0.00 | 0.00 | 0.00 | 92 | 1015.9 |
| 20260507125541 | 55 | 45 | 0.0 | 0.0 | 0.00 | 0.00 | 0.00 | 92 | 1016.0 |
| 20260507125040 | 54 | 45 | 0.0 | 0.0 | 0.00 | 0.00 | 0.00 | 92 | 1015.8 |
| 20260507124547 | 54 | 45 | 0.0 | 0.0 | 0.00 | 0.00 | 0.00 | 92 | 1015.5 |
| 20260507124541 | 54 | 45 | 0.0 | 0.0 | 0.00 | 0.00 | 0.00 | 92 | 1015.8 |
| 20260507124041 | 54 | 45 | 0.0 | 0.0 | 0.00 | 0.00 | 0.00 | 92 | 1015.7 |
| 20260507123041 | 54 | 45 | 0.0 | 0.0 | 0.00 | 0.00 | 0.00 | 92 | 1015.6 |
| 20260507122548 | 54 | 45 | 0.0 | 0.0 | 0.00 | 0.00 | 0.00 | 92 | 1015.6 |
| 20260507122543 | 54 | 45 | 0.0 | 0.0 | 0.00 | 0.00 | 0.00 | 92 | 1015.6 |
| 20260507121541 | 54 | 45 | 0.0 | 0.0 | 0.00 | 0.00 | 0.00 | 92 | 1015.7 |
| 20260507121039 | 54 | 45 | 0.0 | 0.0 | 0.00 | 0.00 | 0.00 | 92 | 1015.7 |
| 20260507120545 | 54 | 45 | 0.0 | 0.0 | 0.00 | 0.00 | 0.00 | 92 | 1015.6 |
| 20260507120539 | 54 | 45 | 0.0 | 0.0 | 0.00 | 0.00 | 0.00 | 91 | 1015.6 |
| 20260507115539 | 54 | 45 | 0.0 | 0.0 | 0.00 | 0.00 | 0.00 | 91 | 1015.6 |
| 20260507115039 | 54 | 45 | 0.0 | 0.0 | 0.00 | 0.00 | 0.00 | 92 | 1015.7 |
| 20260507114539 | 54 | 45 | 0.0 | 0.0 | 0.00 | 0.00 | 0.00 | 92 | 1015.7 |
| 20260507114039 | 54 | 45 | 0.0 | 0.0 | 0.00 | 0.00 | 0.00 | 92 | 1015.7 |
| 20260507113541 | 54 | 45 | 0.0 | 0.0 | 0.00 | 0.00 | 0.00 | 92 | 1015.5 |
| 20260507113039 | 54 | 45 | 0.0 | 0.0 | 0.00 | 0.00 | 0.00 | 92 | 1015.7 |
| 20260507112538 | 54 | 45 | 0.0 | 0.0 | 0.00 | 0.00 | 0.00 | 92 | 1015.7 |
| 20260507112038 | 54 | 45 | 0.0 | 0.0 | 0.00 | 0.00 | 0.00 | 92 | 1015.6 |
| 20260507111538 | 54 | 45 | 0.0 | 0.0 | 0.00 | 0.00 | 0.00 | 92 | 1015.7 |
| 20260507111038 | 54 | 45 | 0.0 | 0.0 | 0.00 | 0.00 | 0.00 | 92 | 1015.8 |
| 20260507110536 | 54 | 45 | 0.0 | 0.0 | 0.00 | 0.00 | 0.00 | 91 | 1015.7 |
| 20260507110038 | 54 | 45 | 0.0 | 0.0 | 0.00 | 0.00 | 0.00 | 91 | 1015.7 |
| 20260507105543 | 54 | 45 | 0.0 | 0.0 | 0.00 | 0.00 | 0.00 | 91 | 1015.7 |
| 20260507105536 | 54 | 45 | 0.0 | 0.0 | 0.00 | 0.00 | 0.00 | 91 | 1015.8 |
| 20260507105037 | 54 | 45 | 0.0 | 0.0 | 0.00 | 0.00 | 0.00 | 91 | 1015.7 |
| 20260507104036 | 54 | 45 | 0.0 | 0.0 | 0.00 | 0.00 | 0.00 | 91 | 1015.9 |
| 20260507103536 | 54 | 45 | 0.0 | 0.0 | 0.00 | 0.00 | 0.00 | 91 | 1015.8 |
| 20260507103036 | 54 | 45 | 0.0 | 0.0 | 0.00 | 0.00 | 0.00 | 91 | 1015.8 |
| 20260507102542 | 54 | 45 | 0.0 | 0.0 | 0.00 | 0.00 | 0.00 | 91 | 1016.0 |
| 20260507102534 | 54 | 45 | 0.0 | 0.0 | 0.00 | 0.00 | 0.00 | 91 | 1015.8 |
| 20260507102035 | 54 | 45 | 0.0 | 0.0 | 0.00 | 0.00 | 0.00 | 91 | 1016.0 |
| 20260507101035 | 54 | 45 | 0.0 | 0.0 | 0.00 | 0.00 | 0.00 | 91 | 1015.9 |
| 20260507100534 | 54 | 45 | 0.0 | 0.0 | 0.00 | 0.00 | 0.00 | 91 | 1015.9 |
| 20260507100036 | 54 | 45 | 0.0 | 0.0 | 0.00 | 0.00 | 0.00 | 91 | 1015.9 |
| 20260507095535 | 54 | 45 | 0.0 | 1.0 | 0.00 | 0.00 | 0.00 | 91 | 1015.9 |
| 20260507095035 | 54 | 45 | 0.0 | 1.0 | 0.00 | 0.00 | 0.00 | 91 | 1016.0 |
| 20260507094534 | 54 | 17 | 0.0 | 0.0 | 0.00 | 0.00 | 0.00 | 91 | 1016.1 |
| 20260507094035 | 54 | 17 | 0.0 | 0.0 | 0.00 | 0.00 | 0.00 | 90 | 1016.1 |
| 20260507093535 | 55 | 17 | 0.0 | 0.0 | 0.00 | 0.00 | 0.00 | 90 | 1016.3 |
| 20260507093035 | 55 | 17 | 0.0 | 0.0 | 0.00 | 0.00 | 0.00 | 90 | 1016.2 |
| 20260507092536 | 55 | 17 | 0.0 | 0.0 | 0.00 | 0.00 | 0.00 | 91 | 1016.1 |
| 20260507092036 | 55 | 17 | 0.0 | 0.0 | 0.00 | 0.00 | 0.00 | 90 | 1016.2 |
| 20260507091536 | 55 | 17 | 0.0 | 0.0 | 0.00 | 0.00 | 0.00 | 91 | 1016.2 |
| 20260507091035 | 55 | 17 | 0.0 | 0.0 | 0.00 | 0.00 | 0.00 | 90 | 1016.2 |
| 20260507090540 | 55 | 17 | 0.0 | 1.0 | 0.00 | 0.00 | 0.00 | 90 | 1016.4 |
| 20260507090535 | 55 | 17 | 0.0 | 1.0 | 0.00 | 0.00 | 0.00 | 90 | 1016.3 |
| 20260507085535 | 56 | 17 | 0.0 | 0.0 | 0.00 | 0.00 | 0.00 | 90 | 1016.4 |
| 20260507085036 | 56 | 17 | 0.0 | 0.0 | 0.00 | 0.00 | 0.00 | 90 | 1016.5 |
| 20260507084534 | 55 | 17 | 0.0 | 0.0 | 0.00 | 0.00 | 0.00 | 90 | 1016.5 |
| 20260507084034 | 56 | 17 | 0.0 | 0.0 | 0.00 | 0.00 | 0.00 | 90 | 1016.4 |
| 20260507083537 | 56 | 17 | 0.0 | 0.0 | 0.00 | 0.00 | 0.00 | 90 | 1016.6 |
| 20260507083533 | 56 | 17 | 0.0 | 0.0 | 0.00 | 0.00 | 0.00 | 90 | 1016.7 |
| 20260507082532 | 56 | 17 | 0.0 | 0.0 | 0.00 | 0.00 | 0.00 | 90 | 1016.7 |
| 20260507082033 | 56 | 17 | 0.0 | 0.0 | 0.00 | 0.00 | 0.00 | 89 | 1016.8 |
| 20260507081534 | 56 | 17 | 0.0 | 0.0 | 0.00 | 0.00 | 0.00 | 90 | 1016.7 |
| 20260507081033 | 56 | 17 | 0.0 | 0.0 | 0.00 | 0.00 | 0.00 | 89 | 1016.8 |
| 20260507080533 | 56 | 17 | 0.0 | 0.0 | 0.00 | 0.00 | 0.00 | 89 | 1016.7 |
| 20260507080032 | 56 | 17 | 0.0 | 0.0 | 0.00 | 0.00 | 0.00 | 89 | 1016.7 |
| 20260507075534 | 56 | 17 | 0.0 | 0.0 | 0.00 | 0.00 | 0.00 | 89 | 1016.9 |
| 20260507075037 | 57 | 17 | 0.0 | 0.0 | 0.00 | 0.00 | 0.00 | 89 | 1016.9 |
| 20260507075032 | 56 | 17 | 0.0 | 0.0 | 0.00 | 0.00 | 0.00 | 89 | 1016.9 |
| 20260507074033 | 57 | 17 | 0.0 | 0.0 | 0.00 | 0.00 | 0.00 | 89 | 1016.9 |
| 20260507073533 | 57 | 17 | 0.0 | 0.0 | 0.00 | 0.00 | 0.00 | 89 | 1016.9 |
| 20260507073034 | 57 | 17 | 0.0 | 0.0 | 0.00 | 0.00 | 0.00 | 89 | 1016.9 |
| 20260507072532 | 57 | 17 | 0.0 | 0.0 | 0.00 | 0.00 | 0.00 | 89 | 1016.9 |
| 20260507072032 | 57 | 17 | 0.0 | 0.0 | 0.00 | 0.00 | 0.00 | 89 | 1017.0 |
| 20260507071532 | 58 | 17 | 0.0 | 0.0 | 0.00 | 0.00 | 0.00 | 89 | 1017.0 |
| 20260507071031 | 58 | 17 | 0.0 | 0.0 | 0.00 | 0.00 | 0.00 | 88 | 1017.0 |
| 20260507070536 | 58 | 17 | 0.0 | 0.0 | 0.00 | 0.00 | 0.00 | 88 | 1017.0 |
| 20260507070532 | 58 | 17 | 0.0 | 0.0 | 0.00 | 0.00 | 0.00 | 88 | 1016.9 |
| 20260507065530 | 58 | 17 | 0.0 | 0.0 | 0.00 | 0.00 | 0.00 | 88 | 1017.0 |
| 20260507065029 | 58 | 17 | 0.0 | 0.0 | 0.00 | 0.00 | 0.00 | 87 | 1017.1 |
| 20260507064528 | 58 | 17 | 0.0 | 0.0 | 0.00 | 0.00 | 0.00 | 87 | 1017.1 |
| 20260507064028 | 58 | 17 | 0.0 | 0.0 | 0.00 | 0.00 | 0.00 | 87 | 1017.1 |
| 20260507063529 | 58 | 17 | 0.0 | 0.0 | 0.00 | 0.00 | 0.00 | 87 | 1017.2 |
| 20260507063033 | 59 | 17 | 0.0 | 0.0 | 0.00 | 0.00 | 0.00 | 87 | 1017.1 |
| 20260507063029 | 58 | 17 | 0.0 | 0.0 | 0.00 | 0.00 | 0.00 | 87 | 1017.2 |
| 20260507062028 | 59 | 17 | 0.0 | 0.0 | 0.00 | 0.00 | 0.00 | 87 | 1017.1 |
| 20260507061529 | 59 | 17 | 0.0 | 0.0 | 0.00 | 0.00 | 0.00 | 87 | 1017.0 |
| 20260507061028 | 59 | 17 | 0.0 | 0.0 | 0.00 | 0.00 | 0.00 | 87 | 1017.0 |
| 20260507060529 | 59 | 17 | 0.0 | 0.0 | 0.00 | 0.00 | 0.00 | 86 | 1017.2 |
| 20260507060028 | 59 | 17 | 0.0 | 0.0 | 0.00 | 0.00 | 0.00 | 86 | 1017.0 |
| 20260507055529 | 59 | 17 | 0.0 | 0.0 | 0.00 | 0.00 | 0.00 | 86 | 1017.1 |
| 20260507055028 | 59 | 17 | 0.0 | 0.0 | 0.00 | 0.00 | 0.00 | 86 | 1017.1 |
| 20260507054528 | 59 | 17 | 0.0 | 0.0 | 0.00 | 0.00 | 0.00 | 86 | 1017.1 |
| 20260507054034 | 59 | 17 | 0.0 | 0.0 | 0.00 | 0.00 | 0.00 | 85 | 1017.1 |
| 20260507054029 | 59 | 17 | 0.0 | 0.0 | 0.00 | 0.00 | 0.00 | 86 | 1017.1 |
| 20260507053029 | 60 | 17 | 0.0 | 0.0 | 0.00 | 0.00 | 0.00 | 85 | 1017.0 |
| 20260507052529 | 60 | 17 | 0.0 | 0.0 | 0.00 | 0.00 | 0.00 | 85 | 1017.1 |